SCP
0 0 0 0 -0 0 0 0 0 0 0 -0 0 0 0 -0 0 -0 -0 -0 0 0 0 0 0 0 0 1 2 2 2 3 3 3 2 2 2 2 1 1 1 0 0 0
0 0 0 -0 -0 0 0 0 0 0 -0 0 0 0 -0 -0 -0 -0 -0 -0 0 -0 0 0 0 0 0 1 1 3 3 3 3 2 2 1 1 1 1 0 0 0 0 0
-0 0 0 -0 0 0 0 0 0 0 0 0 0 0 -0 0 -0 -0 -0 -0 0 0 0 0 0 0 0 0 0 2 2 2 1 1 1 1 0 0 0 0 0 0 0 0
0 0 0 0 0 0 0 0 0 0 0 0 0 0 -0 0 0 -0 -0 -0 -0 -0 0 0 0 0 0 0 0 0 2 1 1 1 0 0 0 0 0 0 0 0 0 0
0 0 0 0 0 0 0 0 0 0 0 0 0 -0 -0 0 -0 0 0 -0 -0 -0 0 0 0 0 0 0 0 0 0 1 1 0 0 0 0 0 0 0 0 0 0 0
0 0 0 0 0 0 0 0 0 0 0 0 -0 -0 0 -0 0 -0 -0 0 -0 -0 0 0 0 0 0 0 0 0 0 1 0 0 0 0 0 0 0 0 0 0 0 0
0 0 0 0 0 0 0 0 0 0 0 0 -0 -0 -0 -0 0 0 0 0 0 0 0 0 0 0 -0 0 0 0 0 0 0 0 0 0 0 0 0 0 0 0 0 0
0 0 0 0 0 0 0 0 0 -0 0 -0 -0 -0 -0 -0 -0 0 0 -0 0 0 0 0 0 -0 0 0 0 -0 0 0 0 0 0 0 0 0 0 0 0 0 0 0
0 0 0 0 0 -0 0 0 0 -0 0 -0 -0 -0 -0 -0 -0 0 -0 0 0 0 0 0 0 -0 -0 0 0 0 -0 0 0 0 0 0 0 0 0 0 0 0 0 0
0 0 0 0 0 0 0 0 0 0 -0 -0 -0 -0 -0 0 0 0 0 0 0 0 0 0 0 -0 0 0 0 0 0 0 0 0 0 0 0 0 0 0 0 0 0 0
0 -0 -0 0 0 0 0 0 0 0 -0 -0 -0 -0 -0 0 0 0 0 0 0 0 0 0 0 -0 0 0 0 0 0 0 0 0 0 0 0 0 0 0 0 0 0 0
0 0 0 0 0 0 0 0 0 -0 -0 -0 -0 -0 0 0 0 0 0 0 0 0 0 0 0 0 0 0 0 0 0 0 0 0 0 0 0 0 -0 0 0 0 0 0
0 0 0 0 0 0 0 0 0 -0 -0 -0 0 -0 0 0 0 0 0 0 0 0 0 0 0 0 0 0 0 -0 0 0 0 0 0 0 0 0 0 -0 -0 -0 -0 -0
-0 0 0 0 0 0 0 0 0 -0 0 0 0 0 0 0 0 0 0 0 0 0 0 0 0 0 0 0 -0 -0 0 0 0 0 0 0 0 0 0 -0 -0 0 -0 0
0 0 0 0 0 -0 0 0 0 -0 -0 -0 -0 0 0 0 0 0 0 0 0 0 0 0 0 0 0 0 0 -0 0 0 0 0 0 0 0 0 0 0 -0 -0 -0 0
0 0 0 -0 0 -0 0 0 -0 0 -0 -0 0 0 0 0 0 0 0 0 0 0 0 0 0 0 0 0 0 -0 0 0 0 0 0 0 0 0 0 0 0 -0 -0 0
0 0 -0 0 0 -0 0 -0 -0 0 -0 0 0 0 0 0 0 0 0 0 0 0 0 0 0 0 0 0 0 0 -0 0 0 0 0 0 0 0 0 0 -0 -0 -0 -0
0 0 0 0 -0 0 0 0 -0 0 0 0 0 0 0 0 0 0 0 0 0 0 0 0 0 0 0 0 0 -0 -0 0 0 0 0 0 0 -0 -0 -0 -0 -0 -0 -0
0 0 0 -0 -0 0 0 0 0 0 0 0 0 0 0 0 0 0 0 0 0 0 0 0 0 0 0 0 0 -0 0 0 0 0 0 0 -0 -0 -0 -0 -0 -0 -0 -0
0 0 -0 -0 -0 0 0 0 0 0 0 0 0 0 0 0 -0 0 0 0 0 0 0 0 0 0 0 0 0 0 0 0 0 0 0 0 0 0 0 0 0 0 0 0
0 0 -0 -0 -0 -0 0 0 0 0 0 0 0 0 0 0 0 0 0 0 0 0 0 0 0 0 0 0 0 0 0 0 0 0 0 0 0 0 0 0 0 0 0 0
0 0 -0 -0 -0 -0 0 0 0 0 0 0 0 0 0 0 0 0 0 0 0 0 0 -0 0 0 0 0 0 0 0 0 0 0 0 0 0 0 0 0 0 0 0 0
0 0 -0 -0 -0 -0 0 0 0 0 0 0 0 0 0 0 0 0 0 0 0 0 0 0 0 0 0 0 0 0 0 0 0 0 0 0 0 0 0 0 0 0 0 0
0 0 0 -0 -0 -0 -0 0 0 0 0 0 0 0 0 0 0 0 0 0 0 0 0 0 0 -0 0 0 0 0 0 0 0 0 0 0 0 0 0 0 0 0 0 0
-0 0 0 0 -0 -0 -0 -0 -0 0 0 0 0 0 0 0 0 0 0 0 0 -0 -0 -0 -0 -0 -0 0 0 0 0 0 0 0 0 0 0 0 0 0 0 0 0 0
0 0 0 0 -0 -0 -0 -0 -0 -0 0 0 0 0 0 0 0 0 0 0 0 -0 -0 -0 -0 -0 -0 0 0 0 0 0 0 0 0 0 0 0 0 0 0 0 0 0
-0 -0 0 0 0 -0 -0 -0 -0 -0 0 0 0 0 0 0 0 0 0 0 0 -0 -0 0 -0 0 0 0 0 0 0 0 0 0 0 0 0 0 0 0 0 0 0 0
Wind_Speed_500mb
20 28 25 32 41 40 32 36 25 40 41 47 30 20 16 41 42 41 40 50 64 61 84 74 62 66 54 30 29 38 53 48 51 53 52 52 53 55 50 55 65 62 57 50
15 20 29 38 38 38 41 37 36 41 47 20 16 32 22 37 43 44 49 49 51 70 75 81 80 66 49 18 25 35 47 57 57 54 52 50 52 50 52 62 65 64 58 48
31 19 20 23 35 19 9 11 10 17 36 8 23 20 20 35 45 54 38 44 63 51 54 62 64 42 43 12 13 32 40 47 45 44 46 51 56 60 60 62 66 61 52 46
14 4 14 9 5 4 9 17 20 28 32 21 25 33 41 47 44 24 45 53 68 72 72 72 68 57 43 20 20 30 23 39 45 51 59 61 64 63 57 65 61 54 50 48
5 6 14 15 4 8 8 19 26 32 28 23 31 25 33 27 32 45 56 57 71 62 64 65 62 56 55 22 22 17 24 38 52 63 70 71 63 57 57 60 55 48 50 43
3 4 10 11 5 7 8 18 13 8 23 25 21 17 25 48 51 75 83 68 70 59 58 55 54 50 54 31 31 13 4 36 56 62 67 63 60 61 59 56 54 48 45 38
9 8 14 9 11 12 2 15 8 27 44 47 22 31 64 63 67 68 65 71 72 67 52 49 45 44 47 29 27 39 25 21 59 63 58 60 63 59 61 55 49 44 38 38
7 9 13 10 9 10 17 34 42 57 62 53 69 62 59 60 68 70 67 77 69 64 50 39 37 39 42 20 29 61 58 53 72 58 62 64 65 60 55 50 44 42 43 43
12 10 14 23 33 51 61 56 65 59 66 64 46 46 54 65 73 73 64 66 60 58 47 34 31 37 40 17 21 49 76 83 65 66 64 56 55 56 55 49 48 46 48 44
10 8 16 38 52 45 42 56 69 66 54 62 64 57 65 73 67 62 58 63 57 48 42 38 30 33 40 17 57 36 74 73 68 64 63 54 51 53 48 50 49 49 49 44
10 18 30 34 47 55 60 42 39 53 66 81 67 58 67 62 62 61 52 56 46 40 38 32 35 33 31 13 12 64 75 73 67 61 62 54 50 49 43 41 43 47 46 41
12 33 35 49 60 56 49 50 56 56 52 59 61 58 64 60 63 57 51 48 40 38 34 28 24 35 16 10 42 63 68 69 59 58 55 45 45 45 38 35 34 30 28 29
27 46 54 62 54 33 43 47 59 56 58 63 61 53 60 60 64 58 47 38 36 36 32 24 21 11 25 6 44 63 69 66 58 49 46 47 47 47 48 41 35 33 28 25
62 47 40 19 22 41 44 45 65 58 50 52 51 46 50 44 43 29 25 30 27 25 23 23 15 17 20 24 46 60 68 56 48 47 50 49 49 48 47 47 46 39 36 33
42 47 33 38 45 51 47 53 47 50 52 47 42 39 35 35 26 8 17 22 26 19 23 22 10 13 6 28 49 66 57 48 54 48 46 48 47 47 47 44 41 41 41 37
43 37 35 39 49 50 47 40 40 52 47 40 35 36 29 29 24 16 18 15 13 17 18 21 23 33 27 37 48 61 64 54 54 47 48 45 43 43 45 41 42 40 42 39
28 31 39 51 49 53 46 40 35 41 36 30 29 30 25 22 11 12 9 8 11 19 23 29 52 49 34 41 50 62 62 50 46 46 39 37 36 39 41 40 39 41 36 32
21 31 41 42 42 47 47 40 37 33 31 27 25 23 17 12 7 2 10 15 20 30 39 52 50 50 41 54 57 58 62 46 45 40 38 34 30 37 40 37 36 34 32 31
31 40 50 43 36 40 42 43 37 35 33 25 21 21 15 10 5 7 11 36 41 39 48 35 35 52 35 47 61 59 62 49 47 42 36 35 32 35 42 42 40 37 40 43
34 44 47 41 38 44 44 37 34 35 32 22 14 16 21 15 13 22 30 40 54 54 47 37 42 38 31 57 66 58 59 55 45 41 39 39 38 37 43 47 47 49 49 47
33 44 50 44 40 45 43 38 39 40 36 32 30 30 29 29 24 21 35 49 50 56 53 33 26 24 26 40 55 55 54 44 43 40 39 43 43 42 40 45 51 55 56 48
21 35 45 44 43 46 53 47 46 45 48 46 46 43 37 37 38 36 37 46 43 42 34 45 38 12 27 43 55 55 60 52 46 37 51 51 52 54 50 57 62 62 59 53
15 28 37 43 40 40 44 51 50 52 56 50 51 56 59 55 52 51 45 36 41 41 37 41 51 38 37 49 56 59 59 48 48 46 54 63 62 63 64 63 62 64 61 55
14 22 30 36 37 47 45 47 56 61 62 67 64 60 59 61 61 61 54 47 44 44 45 49 40 35 27 38 41 44 48 50 46 42 51 58 61 65 61 56 56 52 47 46
18 15 21 27 37 40 44 47 43 57 64 63 65 71 70 64 64 55 55 57 57 56 50 41 38 37 33 39 46 44 43 40 44 50 51 52 54 59 63 67 63 52 50 49
28 10 11 10 21 31 34 37 48 50 59 58 57 59 61 65 66 65 60 59 61 62 62 59 58 55 57 54 51 48 46 38 31 36 44 48 50 55 59 63 63 62 61 63
27 9 13 13 11 20 27 31 32 31 33 38 45 48 54 59 62 66 68 69 67 67 71 72 70 68 67 65 61 58 52 46 40 39 41 50 55 58 59 63 62 68 69 71
Wind_Direction_500mb
243 257 268 267 272 275 260 254 245 271 264 273 276 258 282 308 314 300 293 323 309 324 334 342 344 335 336 314 239 218 217 212 212 209 203 202 204 210 213 206 200 193 187 187
258 247 253 269 270 264 263 261 255 258 266 273 286 301 307 302 308 304 300 297 321 325 337 338 327 317 340 339 245 227 218 208 199 194 196 205 208 194 195 194 191 182 180 181
273 284 294 272 247 231 230 224 221 262 275 290 294 282 279 297 302 302 304 317 312 304 303 298 305 330 348 331 215 209 206 194 194 204 204 192 179 188 189 185 175 172 176 175
279 280 240 279 336 308 249 268 266 268 260 265 264 279 298 299 302 315 320 320 320 316 320 329 343 346 353 313 176 188 189 219 212 202 190 182 180 172 178 169 168 168 172 182
225 211 300 300 213 199 203 281 275 273 265 264 272 299 291 293 295 297 311 311 318 319 314 325 337 345 342 313 252 199 194 226 216 195 181 174 169 169 171 168 169 175 175 180
169 230 247 237 235 65 72 280 283 263 274 273 312 307 298 310 308 306 314 314 318 313 311 319 334 341 347 329 263 278 320 215 202 182 170 168 170 166 169 171 172 170 175 192
226 248 279 253 132 112 216 264 276 299 273 277 282 281 293 301 303 307 305 312 320 317 311 316 332 340 335 308 266 236 232 233 193 175 167 166 163 163 164 166 173 183 185 180
201 221 264 144 99 189 238 285 298 294 281 270 283 294 306 309 306 306 307 312 314 314 318 314 325 335 331 281 276 220 235 210 180 166 167 165 165 167 171 176 177 177 180 183
209 222 236 210 247 279 287 277 294 292 288 296 290 301 305 305 304 301 300 313 310 313 313 308 324 345 344 267 184 230 262 175 161 163 164 169 176 176 177 182 181 182 188 192
352 273 265 283 301 311 317 294 293 298 296 297 301 307 302 300 297 298 297 298 309 310 309 310 323 343 322 220 228 229 164 152 155 159 163 161 165 176 179 183 187 191 192 193
258 278 305 296 307 304 307 310 311 308 310 306 302 299 295 290 296 303 293 299 302 296 298 308 313 335 289 331 161 159 155 157 160 163 167 172 177 182 190 194 199 196 194 193
277 305 276 283 294 302 300 315 322 323 315 314 308 305 300 293 297 295 287 296 295 286 285 290 306 308 287 297 164 166 163 159 161 165 171 172 180 183 186 189 188 192 189 187
282 297 293 302 297 286 311 322 329 314 319 309 307 304 304 299 299 302 292 283 282 285 275 276 292 286 202 88 178 177 161 161 167 171 172 174 174 171 170 173 177 178 180 178
317 304 299 307 314 319 313 315 324 324 316 314 308 307 303 305 309 292 281 283 279 264 258 250 278 208 212 151 182 181 165 166 165 159 163 163 166 168 168 167 167 171 172 172
300 325 307 313 319 327 325 313 315 320 323 322 312 316 313 313 314 308 271 265 259 258 246 241 230 186 168 156 180 171 164 164 159 158 164 173 173 172 173 171 172 170 172 172
324 326 306 322 323 321 325 325 325 326 323 323 322 318 318 314 303 295 282 276 238 223 200 212 185 146 147 164 184 175 168 163 166 174 182 182 181 180 178 174 173 173 174 180
326 331 340 333 329 330 333 332 330 329 325 323 320 315 317 328 315 272 250 167 173 172 172 181 167 164 159 162 179 183 174 158 173 186 184 180 175 176 178 178 177 175 176 177
350 353 341 337 332 334 336 345 348 340 331 336 322 334 332 348 8 106 122 120 137 152 163 177 174 173 164 174 183 189 182 172 177 186 177 175 166 172 172 170 168 168 165 163
354 354 354 352 349 343 349 354 354 355 358 354 343 339 349 11 70 139 102 114 124 147 157 164 185 185 173 183 188 192 189 180 183 189 188 176 165 164 165 166 160 158 153 146
354 0 6 7 7 4 1 7 8 4 12 9 21 26 47 67 91 127 103 94 98 109 118 138 167 175 189 182 188 192 195 183 180 180 193 188 177 167 170 166 160 157 156 154
347 1 11 16 19 14 16 19 18 24 29 36 53 54 62 78 98 112 97 96 90 89 96 118 148 119 167 179 190 197 199 177 186 183 201 199 180 180 175 170 169 169 166 163
344 3 14 20 27 26 27 29 31 35 46 50 58 64 74 82 87 94 100 94 92 104 104 91 89 148 181 185 190 187 182 181 183 176 181 182 186 183 178 179 181 177 174 173
343 7 17 23 29 29 25 39 45 49 50 54 60 64 68 74 81 90 97 101 105 106 108 85 86 98 136 151 156 156 153 157 164 177 182 184 184 182 179 179 179 182 179 177
341 3 17 27 31 38 42 44 56 59 59 59 60 64 69 72 78 83 90 96 100 107 105 105 94 92 99 120 134 139 145 158 154 163 172 172 169 170 175 176 172 174 174 174
337 331 4 21 32 42 41 42 50 56 54 55 60 67 69 74 79 81 85 91 96 99 104 112 117 129 137 132 126 129 131 141 145 149 156 163 164 160 161 163 177 168 160 154
4 329 351 3 33 43 40 32 44 50 51 51 57 60 71 78 80 83 84 85 88 92 95 101 106 110 113 115 116 115 115 118 131 140 144 147 152 154 153 150 146 145 145 143
6 337 356 352 15 45 51 44 43 38 37 49 52 60 70 77 83 86 87 87 85 87 89 93 97 100 103 103 105 106 110 114 115 124 126 127 129 128 127 128 124 118 117 118
Wind_Speed_850mb
20 28 25 32 41 40 32 36 25 40 41 47 30 20 16 41 42 41 40 50 64 61 84 74 62 66 54 30 29 38 53 48 51 53 52 52 53 55 50 55 65 62 57 50
15 20 29 38 38 38 41 37 36 41 47 20 16 32 22 37 43 44 49 49 51 70 75 81 80 66 49 18 25 35 47 57 57 54 52 50 52 50 52 62 65 64 58 48
31 19 20 23 35 19 9 11 10 17 36 8 23 20 20 35 45 54 38 44 63 51 54 62 64 42 43 12 13 32 40 47 45 44 46 51 56 60 60 62 66 61 52 46
14 4 14 9 5 4 9 17 20 28 32 21 25 33 41 47 44 24 45 53 68 72 72 72 68 57 43 20 20 30 23 39 45 51 59 61 64 63 57 65 61 54 50 48
5 6 14 15 4 8 8 19 26 32 28 23 31 25 33 27 32 45 56 57 71 62 64 65 62 56 55 22 22 17 24 38 52 63 70 71 63 57 57 60 55 48 50 43
3 4 10 11 5 7 8 18 13 8 23 25 21 17 25 48 51 75 83 68 70 59 58 55 54 50 54 31 31 13 4 36 56 62 67 63 60 61 59 56 54 48 45 38
9 8 14 9 11 12 2 15 8 27 44 47 22 31 64 63 67 68 65 71 72 67 52 49 45 44 47 29 27 39 25 21 59 63 58 60 63 59 61 55 49 44 38 38
7 9 13 10 9 10 17 34 42 57 62 53 69 62 59 60 68 70 67 77 69 64 50 39 37 39 42 20 29 61 58 53 72 58 62 64 65 60 55 50 44 42 43 43
12 10 14 23 33 51 61 56 65 59 66 64 46 46 54 65 73 73 64 66 60 58 47 34 31 37 40 17 21 49 76 83 65 66 64 56 55 56 55 49 48 46 48 44
10 8 16 38 52 45 42 56 69 66 54 62 64 57 65 73 67 62 58 63 57 48 42 38 30 33 40 17 57 36 74 73 68 64 63 54 51 53 48 50 49 49 49 44
10 18 30 34 47 55 60 42 39 53 66 81 67 58 67 62 62 61 52 56 46 40 38 32 35 33 31 13 12 64 75 73 67 61 62 54 50 49 43 41 43 47 46 41
12 33 35 49 60 56 49 50 56 56 52 59 61 58 64 60 63 57 51 48 40 38 34 28 24 35 16 10 42 63 68 69 59 58 55 45 45 45 38 35 34 30 28 29
27 46 54 62 54 33 43 47 59 56 58 63 61 53 60 60 64 58 47 38 36 36 32 24 21 11 25 6 44 63 69 66 58 49 46 47 47 47 48 41 35 33 28 25
62 47 40 19 22 41 44 45 65 58 50 52 51 46 50 44 43 29 25 30 27 25 23 23 15 17 20 24 46 60 68 56 48 47 50 49 49 48 47 47 46 39 36 33
42 47 33 38 45 51 47 53 47 50 52 47 42 39 35 35 26 8 17 22 26 19 23 22 10 13 6 28 49 66 57 48 54 48 46 48 47 47 47 44 41 41 41 37
43 37 35 39 49 50 47 40 40 52 47 40 35 36 29 29 24 16 18 15 13 17 18 21 23 33 27 37 48 61 64 54 54 47 48 45 43 43 45 41 42 40 42 39
28 31 39 51 49 53 46 40 35 41 36 30 29 30 25 22 11 12 9 8 11 19 23 29 52 49 34 41 50 62 62 50 46 46 39 37 36 39 41 40 39 41 36 32
21 31 41 42 42 47 47 40 37 33 31 27 25 23 17 12 7 2 10 15 20 30 39 52 50 50 41 54 57 58 62 46 45 40 38 34 30 37 40 37 36 34 32 31
31 40 50 43 36 40 42 43 37 35 33 25 21 21 15 10 5 7 11 36 41 39 48 35 35 52 35 47 61 59 62 49 47 42 36 35 32 35 42 42 40 37 40 43
34 44 47 41 38 44 44 37 34 35 32 22 14 16 21 15 13 22 30 40 54 54 47 37 42 38 31 57 66 58 59 55 45 41 39 39 38 37 43 47 47 49 49 47
33 44 50 44 40 45 43 38 39 40 36 32 30 30 29 29 24 21 35 49 50 56 53 33 26 24 26 40 55 55 54 44 43 40 39 43 43 42 40 45 51 55 56 48
21 35 45 44 43 46 53 47 46 45 48 46 46 43 37 37 38 36 37 46 43 42 34 45 38 12 27 43 55 55 60 52 46 37 51 51 52 54 50 57 62 62 59 53
15 28 37 43 40 40 44 51 50 52 56 50 51 56 59 55 52 51 45 36 41 41 37 41 51 38 37 49 56 59 59 48 48 46 54 63 62 63 64 63 62 64 61 55
14 22 30 36 37 47 45 47 56 61 62 67 64 60 59 61 61 61 54 47 44 44 45 49 40 35 27 38 41 44 48 50 46 42 51 58 61 65 61 56 56 52 47 46
18 15 21 27 37 40 44 47 43 57 64 63 65 71 70 64 64 55 55 57 57 56 50 41 38 37 33 39 46 44 43 40 44 50 51 52 54 59 63 67 63 52 50 49
28 10 11 10 21 31 34 37 48 50 59 58 57 59 61 65 66 65 60 59 61 62 62 59 58 55 57 54 51 48 46 38 31 36 44 48 50 55 59 63 63 62 61 63
27 9 13 13 11 20 27 31 32 31 33 38 45 48 54 59 62 66 68 69 67 67 71 72 70 68 67 65 61 58 52 46 40 39 41 50 55 58 59 63 62 68 69 71
Wind_Direction_850mb
243 257 268 267 272 275 260 254 245 271 264 273 276 258 282 308 314 300 293 323 309 324 334 342 344 335 336 314 239 218 217 212 212 209 203 202 204 210 213 206 200 193 187 187
258 247 253 269 270 264 263 261 255 258 266 273 286 301 307 302 308 304 300 297 321 325 337 338 327 317 340 339 245 227 218 208 199 194 196 205 208 194 195 194 191 182 180 181
273 284 294 272 247 231 230 224 221 262 275 290 294 282 279 297 302 302 304 317 312 304 303 298 305 330 348 331 215 209 206 194 194 204 204 192 179 188 189 185 175 172 176 175
279 280 240 279 336 308 249 268 266 268 260 265 264 279 298 299 302 315 320 320 320 316 320 329 343 346 353 313 176 188 189 219 212 202 190 182 180 172 178 169 168 168 172 182
225 211 300 300 213 199 203 281 275 273 265 264 272 299 291 293 295 297 311 311 318 319 314 325 337 345 342 313 252 199 194 226 216 195 181 174 169 169 171 168 169 175 175 180
169 230 247 237 235 65 72 280 283 263 274 273 312 307 298 310 308 306 314 314 318 313 311 319 334 341 347 329 263 278 320 215 202 182 170 168 170 166 169 171 172 170 175 192
226 248 279 253 132 112 216 264 276 299 273 277 282 281 293 301 303 307 305 312 320 317 311 316 332 340 335 308 266 236 232 233 193 175 167 166 163 163 164 166 173 183 185 180
201 221 264 144 99 189 238 285 298 294 281 270 283 294 306 309 306 306 307 312 314 314 318 314 325 335 331 281 276 220 235 210 180 166 167 165 165 167 171 176 177 177 180 183
209 222 236 210 247 279 287 277 294 292 288 296 290 301 305 305 304 301 300 313 310 313 313 308 324 345 344 267 184 230 262 175 161 163 164 169 176 176 177 182 181 182 188 192
352 273 265 283 301 311 317 294 293 298 296 297 301 307 302 300 297 298 297 298 309 310 309 310 323 343 322 220 228 229 164 152 155 159 163 161 165 176 179 183 187 191 192 193
258 278 305 296 307 304 307 310 311 308 310 306 302 299 295 290 296 303 293 299 302 296 298 308 313 335 289 331 161 159 155 157 160 163 167 172 177 182 190 194 199 196 194 193
277 305 276 283 294 302 300 315 322 323 315 314 308 305 300 293 297 295 287 296 295 286 285 290 306 308 287 297 164 166 163 159 161 165 171 172 180 183 186 189 188 192 189 187
282 297 293 302 297 286 311 322 329 314 319 309 307 304 304 299 299 302 292 283 282 285 275 276 292 286 202 88 178 177 161 161 167 171 172 174 174 171 170 173 177 178 180 178
317 304 299 307 314 319 313 315 324 324 316 314 308 307 303 305 309 292 281 283 279 264 258 250 278 208 212 151 182 181 165 166 165 159 163 163 166 168 168 167 167 171 172 172
300 325 307 313 319 327 325 313 315 320 323 322 312 316 313 313 314 308 271 265 259 258 246 241 230 186 168 156 180 171 164 164 159 158 164 173 173 172 173 171 172 170 172 172
324 326 306 322 323 321 325 325 325 326 323 323 322 318 318 314 303 295 282 276 238 223 200 212 185 146 147 164 184 175 168 163 166 174 182 182 181 180 178 174 173 173 174 180
326 331 340 333 329 330 333 332 330 329 325 323 320 315 317 328 315 272 250 167 173 172 172 181 167 164 159 162 179 183 174 158 173 186 184 180 175 176 178 178 177 175 176 177
350 353 341 337 332 334 336 345 348 340 331 336 322 334 332 348 8 106 122 120 137 152 163 177 174 173 164 174 183 189 182 172 177 186 177 175 166 172 172 170 168 168 165 163
354 354 354 352 349 343 349 354 354 355 358 354 343 339 349 11 70 139 102 114 124 147 157 164 185 185 173 183 188 192 189 180 183 189 188 176 165 164 165 166 160 158 153 146
354 0 6 7 7 4 1 7 8 4 12 9 21 26 47 67 91 127 103 94 98 109 118 138 167 175 189 182 188 192 195 183 180 180 193 188 177 167 170 166 160 157 156 154
347 1 11 16 19 14 16 19 18 24 29 36 53 54 62 78 98 112 97 96 90 89 96 118 148 119 167 179 190 197 199 177 186 183 201 199 180 180 175 170 169 169 166 163
344 3 14 20 27 26 27 29 31 35 46 50 58 64 74 82 87 94 100 94 92 104 104 91 89 148 181 185 190 187 182 181 183 176 181 182 186 183 178 179 181 177 174 173
343 7 17 23 29 29 25 39 45 49 50 54 60 64 68 74 81 90 97 101 105 106 108 85 86 98 136 151 156 156 153 157 164 177 182 184 184 182 179 179 179 182 179 177
341 3 17 27 31 38 42 44 56 59 59 59 60 64 69 72 78 83 90 96 100 107 105 105 94 92 99 120 134 139 145 158 154 163 172 172 169 170 175 176 172 174 174 174
337 331 4 21 32 42 41 42 50 56 54 55 60 67 69 74 79 81 85 91 96 99 104 112 117 129 137 132 126 129 131 141 145 149 156 163 164 160 161 163 177 168 160 154
4 329 351 3 33 43 40 32 44 50 51 51 57 60 71 78 80 83 84 85 88 92 95 101 106 110 113 115 116 115 115 118 131 140 144 147 152 154 153 150 146 145 145 143
6 337 356 352 15 45 51 44 43 38 37 49 52 60 70 77 83 86 87 87 85 87 89 93 97 100 103 103 105 106 110 114 115 124 126 127 129 128 127 128 124 118 117 118